Hot Springs, VA

11:58 PM EDT on March 24, 2017 (GMT -0400)
Ingalls

Weather History for KHSP - December, 2013

Change the Weather History Date:

Saturday, December 14, 2013

  Actual Average Record
Temperature  
Mean Temperature 30 °F -  
Max Temperature 35 °F 36 °F 60 °F (2001)
Min Temperature 26 °F 23 °F 1 °F (2010)
Degree Days  
Heating Degree Days 34    
Moisture  
Dew Point 28 °F    
Average Humidity 95    
Maximum Humidity 100    
Minimum Humidity 44    
Precipitation  
Precipitation 0.19 in - - ()
Sea Level Pressure  
Sea Level Pressure 30.01 in    
Wind  
Wind Speed 9 mph (SSE)    
Max Wind Speed 18 mph    
Max Gust Speed 22 mph    
Visibility 2 miles    
Events Fog , Snow    
Averages and records for this station are not official NWS values.
T = Trace of Precipitation, MM = Missing Value Source: NWS Daily Summary

Daily Weather History Graph

Daily Weather History Graph

Search for Another Location

Airport or City:

Trip Planner

Search our weather history database for the weather conditions in past years. The results will help you decide how hot, cold, wet, or windy it might be!

Date:

Astronomy

Dec. 14, 2013 Rise Set
Actual Time 7:27 AM EST 5:00 PM EST
Civil Twilight 6:58 AM EST 5:30 PM EST
Nautical Twilight 6:25 AM EST 6:03 PM EST
Astronomical Twilight 5:53 AM EST 6:35 PM EST
Moon 3:19 PM EST (12/14) 4:48 AM EST (12/14)
Length of Visible Light 10h 32m
Length of Day
9h 33m
Waxing Gibbous, 93% of the Moon is Illuminated
Dec 14
Waxing Gibbous
Dec 17
Full
Dec 25
Last Quarter
Jan 1
New
Jan 7
First Quarter

Hourly Weather History & Observations

Time (EST) Temp. Windchill Dew Point Humidity Pressure Visibility Wind Dir Wind Speed Gust Speed Precip Events Conditions
12:15 AM 30.2 °F 21.9 °F 12.2 °F 47% 30.21 in 10.0 mi West 9.2 mph - N/A   Overcast
12:35 AM 30.2 °F 21.9 °F 12.2 °F 47% 30.21 in 10.0 mi West 9.2 mph - N/A   Overcast
12:55 AM 32.0 °F 23.0 °F 12.2 °F 44% 30.22 in 10.0 mi WSW 11.5 mph - N/A   Overcast
1:15 AM 32.0 °F 22.5 °F 12.2 °F 44% 30.22 in 10.0 mi West 12.7 mph - N/A   Overcast
1:35 AM 32.0 °F 23.0 °F 12.2 °F 44% 30.22 in 10.0 mi West 11.5 mph - N/A   Overcast
1:55 AM 30.2 °F 20.8 °F 19.4 °F 64% 30.22 in 7.0 mi WSW 11.5 mph - N/A Snow Light Snow
2:15 AM 28.4 °F 22.2 °F 24.8 °F 86% 30.21 in 1.2 mi WSW 5.8 mph - N/A Snow Light Snow
2:35 AM 26.6 °F 21.2 °F 26.6 °F 100% 30.21 in 1.2 mi SW 4.6 mph - N/A Snow Light Snow
2:55 AM 28.4 °F - 26.6 °F 93% 30.20 in 1.8 mi Calm Calm - N/A Snow Light Snow
3:15 AM 28.4 °F 24.6 °F 28.4 °F 100% 30.20 in 2.5 mi West 3.5 mph - N/A Snow Light Snow
3:35 AM 28.4 °F - 28.4 °F 100% 30.19 in 1.5 mi Calm Calm - 0.01 in Snow Light Snow
3:55 AM 28.4 °F 24.6 °F 28.4 °F 100% 30.18 in 0.8 mi SSE 3.5 mph - N/A Snow Snow
4:15 AM 28.4 °F 23.3 °F 28.4 °F 100% 30.17 in 2.5 mi South 4.6 mph - 0.01 in Snow Light Snow
4:35 AM 30.2 °F 24.3 °F 30.2 °F 100% 30.17 in 5.0 mi SSW 5.8 mph - 0.01 in Snow Light Snow
4:55 AM 33.8 °F 27.7 °F 33.8 °F 100% 30.16 in 3.0 mi South 6.9 mph - 0.01 in Snow Light Snow
5:15 AM 28.4 °F - 28.4 °F 100% 30.14 in 0.5 mi Calm Calm - 0.02 in Snow Light Snow
5:35 AM 28.4 °F 21.2 °F 28.4 °F 100% 30.16 in 0.2 mi SSE 6.9 mph - 0.02 in Fog Light Freezing Fog
5:55 AM 28.4 °F 24.6 °F 28.4 °F 100% 30.14 in 0.2 mi SSE 3.5 mph - N/A Fog Light Freezing Fog
6:15 AM 30.2 °F 23.4 °F 30.2 °F 100% 30.14 in 0.2 mi SSE 6.9 mph - 0.01 in Fog Light Freezing Fog
6:35 AM 30.2 °F 21.3 °F 30.2 °F 100% 30.14 in 0.2 mi SSE 10.4 mph 16.1 mph 0.01 in Fog Light Freezing Fog
6:55 AM 30.2 °F 22.6 °F 30.2 °F 100% 30.14 in 0.8 mi SSE 8.1 mph - N/A   Overcast
7:15 AM 30.2 °F 21.3 °F 30.2 °F 100% 30.15 in 10.0 mi South 10.4 mph - N/A   Overcast
7:35 AM 28.4 °F 19.1 °F 28.4 °F 100% 30.15 in 0.2 mi SSE 10.4 mph - N/A Fog Light Freezing Fog
7:55 AM 28.4 °F 19.7 °F 28.4 °F 100% 30.16 in 0.2 mi SSE 9.2 mph - N/A Fog Light Freezing Fog
8:15 AM 28.4 °F 19.7 °F 28.4 °F 100% 30.14 in 10.0 mi SSE 9.2 mph - N/A   Mostly Cloudy
8:35 AM 28.4 °F 19.1 °F 28.4 °F 100% 30.15 in 10.0 mi SE 10.4 mph - N/A   Scattered Clouds
8:55 AM 28.4 °F 19.7 °F 28.4 °F 100% 30.15 in 10.0 mi SE 9.2 mph - N/A   Scattered Clouds
9:15 AM 28.4 °F 19.1 °F 28.4 °F 100% 30.14 in 3.0 mi SE 10.4 mph - N/A   Mostly Cloudy
9:35 AM 28.4 °F 19.7 °F 28.4 °F 100% 30.14 in 10.0 mi SE 9.2 mph - N/A   Overcast
9:55 AM 28.4 °F 19.1 °F 28.4 °F 100% 30.13 in 10.0 mi SE 10.4 mph 17.3 mph N/A   Mostly Cloudy
10:15 AM 28.4 °F 18.5 °F 28.4 °F 100% 30.12 in 10.0 mi SE 11.5 mph 16.1 mph N/A   Mostly Cloudy
10:35 AM 28.4 °F 18.0 °F 26.6 °F 93% 30.11 in 2.0 mi SE 12.7 mph 20.7 mph N/A Snow Light Snow
10:55 AM 26.6 °F 13.8 °F 26.6 °F 100% 30.09 in 0.2 mi SE 17.3 mph 20.7 mph N/A Snow Light Snow
11:15 AM 26.6 °F 16.2 °F 26.6 °F 100% 30.10 in 0.2 mi SE 11.5 mph 21.9 mph N/A Snow Snow
11:35 AM 26.6 °F 16.2 °F 26.6 °F 100% 30.07 in 0.2 mi SE 11.5 mph 18.4 mph N/A Snow Snow
11:55 AM 26.6 °F 16.2 °F 26.6 °F 100% 30.06 in 0.2 mi SE 11.5 mph - N/A Snow Light Snow
12:15 PM 26.6 °F 16.2 °F 26.6 °F 100% 30.04 in 0.2 mi SE 11.5 mph - N/A Snow Snow
12:35 PM 26.6 °F 15.7 °F 26.6 °F 100% 30.01 in 0.2 mi ESE 12.7 mph - 0.01 in Snow Light Snow
12:55 PM 26.6 °F 17.5 °F 26.6 °F 100% 30.01 in 0.2 mi ESE 9.2 mph - N/A Snow Light Snow
1:15 PM 26.6 °F 17.5 °F 26.6 °F 100% 29.98 in 0.2 mi ESE 9.2 mph - N/A Snow Light Snow
1:35 PM 26.6 °F 17.5 °F 26.6 °F 100% 29.97 in 0.2 mi ESE 9.2 mph - 0.01 in Snow Light Snow
1:55 PM 26.6 °F 16.8 °F 26.6 °F 100% 29.96 in 0.2 mi East 10.4 mph - N/A Snow Light Snow
2:15 PM 26.6 °F 17.5 °F 26.6 °F 100% 29.96 in 0.2 mi ESE 9.2 mph - 0.01 in Snow Light Snow
2:35 PM 28.4 °F 19.1 °F 28.4 °F 100% 29.94 in 0.2 mi ESE 10.4 mph - 0.01 in Snow Snow
2:55 PM 28.4 °F 19.1 °F 28.4 °F 100% 29.94 in 0.2 mi East 10.4 mph - N/A Snow Light Snow
3:15 PM 26.6 °F 16.8 °F 26.6 °F 100% 29.91 in 0.2 mi East 10.4 mph - N/A Snow Light Snow
3:35 PM 26.6 °F 17.5 °F 26.6 °F 100% 29.90 in 0.2 mi ESE 9.2 mph - N/A Snow Light Snow
3:55 PM 26.6 °F 16.8 °F 26.6 °F 100% 29.89 in 0.2 mi East 10.4 mph - N/A Snow Light Snow
4:15 PM 26.6 °F 16.2 °F 26.6 °F 100% 29.89 in 0.2 mi East 11.5 mph - N/A Snow Light Snow
4:35 PM 26.6 °F 19.1 °F 26.6 °F 100% 29.90 in 0.2 mi ESE 6.9 mph - N/A Snow Light Snow
4:55 PM 28.4 °F 24.6 °F 28.4 °F 100% 29.91 in 0.2 mi SSW 3.5 mph - 0.01 in   Overcast
5:15 PM 28.4 °F 21.2 °F 28.4 °F 100% 29.88 in 0.2 mi SE 6.9 mph - 0.01 in   Overcast
5:35 PM 28.4 °F 20.4 °F 28.4 °F 100% 29.86 in 0.2 mi ESE 8.1 mph - 0.01 in Fog Light Freezing Fog
5:55 PM 30.2 °F 21.9 °F 30.2 °F 100% 29.85 in 0.2 mi SSE 9.2 mph 18.4 mph N/A Fog Light Freezing Fog
6:15 PM 32.0 °F 22.1 °F 32.0 °F 100% 29.85 in 0.2 mi SSE 13.8 mph 19.6 mph 0.01 in Snow Light Snow
6:35 PM 30.2 °F 21.9 °F 30.2 °F 100% 29.85 in 0.2 mi SSE 9.2 mph - 0.01 in Snow Light Snow
6:55 PM 32.0 °F 24.2 °F 32.0 °F 100% 29.84 in 0.2 mi SSE 9.2 mph - N/A Snow Light Snow
7:15 PM 32.0 °F 24.2 °F 32.0 °F 100% 29.84 in 0.2 mi South 9.2 mph - 0.01 in Snow Light Snow
7:35 PM 33.8 °F 26.4 °F 33.8 °F 100% 29.84 in 0.2 mi South 9.2 mph - 0.03 in Snow Light Snow
7:55 PM 33.8 °F 27.0 °F 33.8 °F 100% 29.83 in 0.2 mi South 8.1 mph - 0.01 in Snow Light Snow
8:15 PM 33.8 °F 27.7 °F 33.8 °F 100% 29.82 in 0.2 mi SSW 6.9 mph - 0.02 in Snow Light Snow
8:35 PM 35.6 °F 28.6 °F 35.6 °F 100% 29.80 in 0.5 mi SSW 9.2 mph - 0.03 in Fog Fog
8:55 PM 33.8 °F 26.4 °F 33.8 °F 100% 29.79 in 0.2 mi SW 9.2 mph - N/A Fog Fog
9:15 PM 35.6 °F 27.1 °F 35.6 °F 100% 29.77 in 0.2 mi SW 12.7 mph 16.1 mph 0.01 in Snow Light Snow
9:55 PM 35.6 °F 26.6 °F 35.6 °F 100% 29.77 in 0.2 mi SW 13.8 mph - 0.01 in Snow Snow
10:15 PM 35.6 °F 25.9 °F 35.6 °F 100% 29.76 in 0.2 mi WSW 16.1 mph - 0.01 in Snow Snow
10:35 PM 33.8 °F 24.3 °F 33.8 °F 100% 29.73 in 0.2 mi WSW 13.8 mph - 0.01 in Snow Heavy Snow
10:55 PM 35.6 °F 25.5 °F 35.6 °F 100% 29.74 in 0.2 mi WSW 17.3 mph - N/A Snow Light Snow
11:15 PM 35.6 °F 25.9 °F 35.6 °F 100% 29.73 in 0.2 mi WSW 16.1 mph - N/A Snow Light Snow
11:35 PM 35.6 °F 25.2 °F 35.6 °F 100% 29.74 in 0.2 mi WSW 18.4 mph - N/A Snow Snow
11:55 PM 35.6 °F 25.9 °F 35.6 °F 100% 29.71 in 0.2 mi West 16.1 mph - N/A Snow Light Snow